Time,TemperatureF,DewpointF,PressureIn,WindDirection,WindDirectionDegrees,WindSpeedMPH,WindSpeedGustMPH,Humidity,HourlyPrecipIn,Conditions,Clouds,dailyrainin,SoftwareType,DateUTC
2013-06-08 00:07:00,64.9,58.0,30.11,NW,309,0.0,0.0,78,0.00,,,0.00,weatherlink.com 1.10,2013-06-08 04:07:00,
2013-06-08 00:25:00,64.7,58.0,30.11,NW,309,0.0,0.0,80,0.00,,,0.00,weatherlink.com 1.10,2013-06-08 04:25:00,
2013-06-08 00:43:00,64.5,59.0,30.11,NW,309,0.0,0.0,81,0.00,,,0.00,weatherlink.com 1.10,2013-06-08 04:43:00,
2013-06-08 01:01:00,64.5,59.0,30.10,NW,309,0.0,0.0,81,0.00,,,0.00,weatherlink.com 1.10,2013-06-08 05:01:00,
2013-06-08 01:18:00,64.9,58.0,30.11,NW,309,0.0,1.0,78,0.00,,,0.00,weatherlink.com 1.10,2013-06-08 05:18:00,
2013-06-08 01:36:00,63.7,57.0,30.10,NW,323,0.0,1.0,78,0.00,,,0.00,weatherlink.com 1.10,2013-06-08 05:36:00,
2013-06-08 01:55:00,62.6,57.0,30.10,NW,323,0.0,0.0,81,0.00,,,0.00,weatherlink.com 1.10,2013-06-08 05:55:00,
2013-06-08 02:12:00,61.9,56.0,30.10,NW,323,0.0,1.0,81,0.00,,,0.00,weatherlink.com 1.10,2013-06-08 06:12:00,
2013-06-08 02:30:00,61.3,56.0,30.11,NW,323,0.0,0.0,82,0.00,,,0.00,weatherlink.com 1.10,2013-06-08 06:30:00,
2013-06-08 02:48:00,59.9,56.0,30.12,NW,323,0.0,0.0,86,0.00,,,0.00,weatherlink.com 1.10,2013-06-08 06:48:00,
2013-06-08 03:05:00,59.1,56.0,30.12,NW,323,0.0,0.0,88,0.00,,,0.00,weatherlink.com 1.10,2013-06-08 07:05:00,
2013-06-08 03:23:00,58.4,55.0,30.12,NW,323,0.0,0.0,89,0.00,,,0.00,weatherlink.com 1.10,2013-06-08 07:23:00,
2013-06-08 03:42:00,57.9,55.0,30.12,ENE,72,0.0,1.0,90,0.00,,,0.00,weatherlink.com 1.10,2013-06-08 07:42:00,
2013-06-08 03:59:00,58.6,55.0,30.12,NW,318,0.0,2.0,87,0.00,,,0.00,weatherlink.com 1.10,2013-06-08 07:59:00,
2013-06-08 04:17:00,58.8,54.0,30.13,NE,44,0.0,1.0,85,0.00,,,0.00,weatherlink.com 1.10,2013-06-08 08:17:00,
2013-06-08 04:35:00,58.6,55.0,30.13,NNW,346,1.0,2.0,86,0.00,,,0.00,weatherlink.com 1.10,2013-06-08 08:35:00,
2013-06-08 04:53:00,58.4,54.0,30.13,NE,40,0.0,0.0,86,0.00,,,0.00,weatherlink.com 1.10,2013-06-08 08:53:00,
2013-06-08 05:11:00,57.6,54.0,30.14,NNW,334,0.0,1.0,88,0.00,,,0.00,weatherlink.com 1.10,2013-06-08 09:11:00,
2013-06-08 05:28:00,57.3,54.0,30.14,North,354,0.0,1.0,89,0.00,,,0.00,weatherlink.com 1.10,2013-06-08 09:28:00,
2013-06-08 05:46:00,57.1,54.0,30.15,North,352,0.0,0.0,89,0.00,,,0.00,weatherlink.com 1.10,2013-06-08 09:46:00,
2013-06-08 06:03:00,57.5,55.0,30.15,NW,326,0.0,1.0,90,0.00,,,0.00,weatherlink.com 1.10,2013-06-08 10:03:00,
2013-06-08 06:22:00,57.9,55.0,30.15,North,352,0.0,1.0,89,0.00,,,0.00,weatherlink.com 1.10,2013-06-08 10:22:00,
2013-06-08 06:40:00,57.9,55.0,30.16,NE,39,0.0,1.0,89,0.00,,,0.00,weatherlink.com 1.10,2013-06-08 10:40:00,
2013-06-08 06:57:00,57.8,55.0,30.16,NNE,15,0.0,1.0,89,0.00,,,0.00,weatherlink.com 1.10,2013-06-08 10:57:00,
2013-06-08 07:16:00,58.4,55.0,30.17,ESE,115,0.0,1.0,89,0.00,,,0.00,weatherlink.com 1.10,2013-06-08 11:16:00,
2013-06-08 07:33:00,59.3,56.0,30.17,NE,53,1.0,3.0,88,0.00,,,0.00,weatherlink.com 1.10,2013-06-08 11:33:00,
2013-06-08 07:51:00,60.1,56.0,30.18,SE,129,0.0,1.0,87,0.00,,,0.00,weatherlink.com 1.10,2013-06-08 11:51:00,
2013-06-08 08:08:00,60.6,56.0,30.18,ESE,121,0.0,1.0,86,0.00,,,0.00,weatherlink.com 1.10,2013-06-08 12:08:00,
2013-06-08 08:27:00,62.0,57.0,30.19,East,94,1.0,1.0,83,0.00,,,0.00,weatherlink.com 1.10,2013-06-08 12:27:00,
2013-06-08 08:44:00,63.7,57.0,30.19,East,92,0.0,1.0,80,0.00,,,0.00,weatherlink.com 1.10,2013-06-08 12:44:00,
2013-06-08 09:02:00,65.2,58.0,30.19,North,1,0.0,0.0,77,0.00,,,0.00,weatherlink.com 1.10,2013-06-08 13:02:00,
2013-06-08 09:21:00,65.0,58.0,30.20,NNE,27,0.0,0.0,77,0.00,,,0.00,weatherlink.com 1.10,2013-06-08 13:21:00,
2013-06-08 09:38:00,65.1,57.0,30.21,NE,44,0.0,0.0,76,0.00,,,0.00,weatherlink.com 1.10,2013-06-08 13:38:00,
2013-06-08 09:56:00,65.4,58.0,30.21,NNE,20,0.0,0.0,77,0.00,,,0.00,weatherlink.com 1.10,2013-06-08 13:56:00,
2013-06-08 10:13:00,66.2,58.0,30.21,NNE,20,0.0,0.0,75,0.00,,,0.00,weatherlink.com 1.10,2013-06-08 14:13:00,
2013-06-08 10:32:00,66.7,59.0,30.21,ESE,113,0.0,0.0,75,0.00,,,0.00,weatherlink.com 1.10,2013-06-08 14:32:00,
2013-06-08 10:49:00,68.5,60.0,30.21,NE,53,0.0,0.0,75,0.00,,,0.00,weatherlink.com 1.10,2013-06-08 14:49:00,
2013-06-08 11:07:00,71.1,60.0,30.20,SE,132,0.0,1.0,69,0.00,,,0.00,weatherlink.com 1.10,2013-06-08 15:07:00,
2013-06-08 11:25:00,71.4,60.0,30.20,ESE,115,1.0,4.0,67,0.00,,,0.00,weatherlink.com 1.10,2013-06-08 15:25:00,
2013-06-08 11:43:00,72.2,61.0,30.20,SE,126,2.0,6.0,69,0.00,,,0.00,weatherlink.com 1.10,2013-06-08 15:43:00,
2013-06-08 12:00:00,73.6,61.0,30.20,SE,128,1.0,4.0,64,0.00,,,0.00,weatherlink.com 1.10,2013-06-08 16:00:00,
2013-06-08 12:19:00,75.2,61.0,30.20,NE,42,0.0,2.0,62,0.00,,,0.00,weatherlink.com 1.10,2013-06-08 16:19:00,
2013-06-08 12:36:00,75.5,61.0,30.21,WNW,284,0.0,6.0,62,0.00,,,0.00,weatherlink.com 1.10,2013-06-08 16:36:00,
2013-06-08 12:54:00,74.8,60.0,30.21,East,96,0.0,6.0,61,0.00,,,0.00,weatherlink.com 1.10,2013-06-08 16:54:00,
2013-06-08 13:11:00,76.1,63.0,30.21,SSW,204,1.0,4.0,63,0.00,,,0.00,weatherlink.com 1.10,2013-06-08 17:11:00,
2013-06-08 13:30:00,76.8,63.0,30.20,NW,304,0.0,5.0,62,0.00,,,0.00,weatherlink.com 1.10,2013-06-08 17:30:00,
2013-06-08 13:47:00,75.4,61.0,30.20,East,85,3.0,5.0,61,0.00,,,0.00,weatherlink.com 1.10,2013-06-08 17:47:00,
2013-06-08 14:05:00,76.6,61.0,30.20,NNW,345,1.0,4.0,59,0.00,,,0.00,weatherlink.com 1.10,2013-06-08 18:05:00,
2013-06-08 14:24:00,77.5,61.0,30.20,East,91,0.0,5.0,57,0.00,,,0.00,weatherlink.com 1.10,2013-06-08 18:24:00,
2013-06-08 14:59:00,79.2,58.0,30.19,SW,229,0.0,3.0,49,0.00,,,0.00,weatherlink.com 1.10,2013-06-08 18:59:00,
2013-06-08 15:16:00,78.8,62.0,30.19,East,92,1.0,2.0,56,0.00,,,0.00,weatherlink.com 1.10,2013-06-08 19:16:00,
2013-06-08 15:35:00,79.3,61.0,30.18,SSE,149,1.0,3.0,54,0.00,,,0.00,weatherlink.com 1.10,2013-06-08 19:35:00,
2013-06-08 16:10:00,80.9,62.0,30.18,SSW,202,1.0,3.0,52,0.00,,,0.00,weatherlink.com 1.10,2013-06-08 20:10:00,
2013-06-08 16:27:00,80.7,61.0,30.18,NNE,27,1.0,4.0,51,0.00,,,0.00,weatherlink.com 1.10,2013-06-08 20:27:00,
2013-06-08 16:46:00,81.2,60.0,30.17,SSW,195,1.0,4.0,49,0.00,,,0.00,weatherlink.com 1.10,2013-06-08 20:46:00,
2013-06-08 17:03:00,81.6,61.0,30.17,ENE,68,0.0,3.0,49,0.00,,,0.00,weatherlink.com 1.10,2013-06-08 21:03:00,
2013-06-08 17:22:00,81.2,60.0,30.18,ESE,110,1.0,3.0,48,0.00,,,0.00,weatherlink.com 1.10,2013-06-08 21:22:00,
2013-06-08 17:39:00,80.9,59.0,30.18,NE,39,0.0,2.0,47,0.00,,,0.00,weatherlink.com 1.10,2013-06-08 21:39:00,
2013-06-08 17:57:00,80.6,59.0,30.19,SSE,160,0.0,1.0,48,0.00,,,0.00,weatherlink.com 1.10,2013-06-08 21:57:00,
2013-06-08 18:15:00,79.0,59.0,30.18,ESE,105,0.0,1.0,51,0.00,,,0.00,weatherlink.com 1.10,2013-06-08 22:15:00,
2013-06-08 18:32:00,80.1,60.0,30.18,SSE,151,0.0,1.0,50,0.00,,,0.00,weatherlink.com 1.10,2013-06-08 22:32:00,
2013-06-08 18:51:00,79.7,61.0,30.18,SE,131,0.0,2.0,53,0.00,,,0.00,weatherlink.com 1.10,2013-06-08 22:51:00,
2013-06-08 19:08:00,79.2,61.0,30.18,North,349,0.0,1.0,53,0.00,,,0.00,weatherlink.com 1.10,2013-06-08 23:08:00,
2013-06-08 19:26:00,78.6,59.0,30.18,NE,36,0.0,1.0,51,0.00,,,0.00,weatherlink.com 1.10,2013-06-08 23:26:00,
2013-06-08 19:44:00,78.4,58.0,30.19,East,89,1.0,3.0,50,0.00,,,0.00,weatherlink.com 1.10,2013-06-08 23:44:00,
2013-06-08 20:02:00,78.2,59.0,30.19,East,79,0.0,2.0,51,0.00,,,0.00,weatherlink.com 1.10,2013-06-09 00:02:00,
2013-06-08 20:20:00,77.3,59.0,30.20,East,79,0.0,0.0,54,0.00,,,0.00,weatherlink.com 1.10,2013-06-09 00:20:00,
2013-06-08 20:38:00,75.3,59.0,30.20,East,79,0.0,0.0,57,0.00,,,0.00,weatherlink.com 1.10,2013-06-09 00:38:00,
2013-06-08 20:55:00,73.1,60.0,30.20,East,79,0.0,0.0,63,0.00,,,0.00,weatherlink.com 1.10,2013-06-09 00:55:00,
2013-06-08 21:13:00,71.6,60.0,30.20,ENE,75,0.0,0.0,67,0.00,,,0.00,weatherlink.com 1.10,2013-06-09 01:13:00,
2013-06-08 21:30:00,70.6,60.0,30.21,ENE,75,0.0,0.0,69,0.00,,,0.00,weatherlink.com 1.10,2013-06-09 01:30:00,
2013-06-08 21:49:00,69.7,60.0,30.21,ENE,75,0.0,0.0,72,0.00,,,0.00,weatherlink.com 1.10,2013-06-09 01:49:00,
2013-06-08 22:04:00,68.9,61.0,30.22,ESE,110,0.0,1.0,75,0.00,,,0.00,weatherlink.com 1.10,2013-06-09 02:04:00,
2013-06-08 22:20:00,68.9,61.0,30.23,ESE,110,0.0,1.0,77,0.00,,,0.00,weatherlink.com 1.10,2013-06-09 02:20:00,
2013-06-08 22:38:00,69.7,63.0,30.23,SSE,155,1.0,4.0,78,0.00,,,0.00,weatherlink.com 1.10,2013-06-09 02:38:00,
2013-06-08 22:56:00,69.5,63.0,30.23,East,96,0.0,2.0,79,0.00,,,0.00,weatherlink.com 1.10,2013-06-09 02:56:00,
2013-06-08 23:14:00,68.4,62.0,30.24,NNW,348,0.0,1.0,81,0.00,,,0.00,weatherlink.com 1.10,2013-06-09 03:14:00,
2013-06-08 23:31:00,68.3,62.0,30.23,SE,136,0.0,3.0,81,0.00,,,0.00,weatherlink.com 1.10,2013-06-09 03:31:00,
2013-06-08 23:50:00,68.6,62.0,30.24,East,96,0.0,2.0,80,0.00,,,0.00,weatherlink.com 1.10,2013-06-09 03:50:00,